Location: Newark
(40.7360°N, 74.1730°W)
Time: 06:52:29
(UTC-04:00)

Amateur Radio Satellites - All Passes

Search period start: 25 July 2017 06:22
Search period end: 26 July 2017 06:22
Location: Newark, 40.7360°N, 74.1730°W

Satellite Date Start Highest point End Downlink Frequencies (MHz)
Time Altitude Azimuth
XW-2D 25 Jul 06:22:41 06:25:42 22° 95° (E) 06:28:42 145.860 - 145.880
XW-2B 25 Jul 06:32:31 06:35:49 28° 97° (E) 06:39:06 145.730 - 145.750
SO-50 25 Jul 06:36:58 06:41:28 69° 119° (ESE) 06:45:57 436.795
CUTE-I 25 Jul 06:42:13 06:47:06 34° 97° (E) 06:51:55 437.470
HO-68 25 Jul 06:42:52 06:45:50 13° 88° (E) 06:48:47 435.675
STRAND 1 25 Jul 06:44:31 06:48:59 31° 67° (ENE) 06:53:28 437.568
XW-2C 25 Jul 06:49:36 06:53:14 47° 99° (E) 06:56:54 145.795 - 145.815
NUDT-PHONESAT 25 Jul 06:57:35 07:01:07 43° 99° (E) 07:04:37 437.300
YUBILEINY 25 Jul 06:59:53 07:08:30 64° 268° (W) 07:17:02 435.215
CUTE 1.7 + AOD 2 25 Jul 07:10:27 07:12:42 14° 91° (E) 07:14:55 437.475
DOVE 4 25 Jul 07:11:38 07:16:34 41° 290° (WNW) 07:21:20 437.250
KAITUO 1B 25 Jul 07:11:47 07:15:31 70° 102° (ESE) 07:19:13 145.475/437.950
LilacSat-2 25 Jul 07:12:51 07:16:38 78° 284° (WNW) 07:20:25 437.200
AO-7 25 Jul 07:22:21 07:26:07 14° 315° (NW) 07:29:51 .
SEEDS 25 Jul 07:23:17 07:24:52 12° 90° (E) 07:26:27 437.485
FO-29 25 Jul 07:27:12 07:29:08 11° 49° (NE) 07:31:05 435.910
XW-2F 25 Jul 07:27:29 07:31:09 56° 285° (WNW) 07:34:50 145.980 - 146.000
XW-2D 25 Jul 07:56:47 07:59:48 23° 291° (WNW) 08:02:48 145.860 - 145.880
AAUSAT CUBESAT 2 25 Jul 08:05:52 08:08:33 16° 92° (E) 08:11:14 437.432
XW-2B 25 Jul 08:07:08 08:09:48 19° 292° (WNW) 08:12:29 145.730 - 145.750
XW-2A 25 Jul 08:15:21 08:18:33 43° 99° (E) 08:21:44 145.665 - 145.685
SO-50 25 Jul 08:19:24 08:22:22 17° 318° (NW) 08:25:21 436.795
CUTE-I 25 Jul 08:22:24 08:27:01 30° 294° (WNW) 08:31:37 437.470
STRAND 1 25 Jul 08:23:31 08:28:05 32° 264° (W) 08:32:40 437.568
CUBEBUG 2 25 Jul 08:24:39 08:28:47 47° 99° (E) 08:32:47 437.445
XW-2C 25 Jul 08:25:34 08:27:01 12° 295° (WNW) 08:28:27 145.795 - 145.815
HO-68 25 Jul 08:27:22 08:34:34 80° 106° (ESE) 08:41:43 435.675
Oscar 11 25 Jul 08:28:38 08:29:42 11° 90° (E) 08:30:46 .
NUDT-PHONESAT 25 Jul 08:33:02 08:34:36 12° 295° (WNW) 08:36:10 437.300
AO-73 25 Jul 08:40:56 08:43:57 19° 94° (E) 08:46:58 145.935
CUTE 1.7 + AOD 2 25 Jul 08:44:40 08:48:46 48° 286° (WNW) 08:52:52 437.475
TIGRISAT 25 Jul 08:53:51 08:56:22 15° 64° (ENE) 08:58:54 435.000
SEEDS 25 Jul 08:56:44 09:00:52 56° 286° (WNW) 09:05:00 437.485
YUBILEINY 25 Jul 09:02:41 09:03:22 10° 288° (WNW) 09:04:03 435.215
FO-29 25 Jul 09:05:02 09:12:22 52° 68° (ENE) 09:19:56 435.910
UWE-3 25 Jul 09:22:33 09:26:43 63° 285° (WNW) 09:30:47 435.000/436.395/437.385
ZACube-1 25 Jul 09:36:02 09:40:12 83° 283° (WNW) 09:44:19 437.345
PRISM 25 Jul 09:39:42 09:43:27 36° 71° (ENE) 09:47:15 437.425
AAUSAT CUBESAT 2 25 Jul 09:40:15 09:44:09 39° 288° (WNW) 09:48:03 437.432
UNISAT 6 25 Jul 09:43:51 09:48:20 51° 73° (ENE) 09:52:47 437.425
Oscar 11 25 Jul 10:01:58 10:06:14 64° 285° (WNW) 10:10:30 .
CUBEBUG 2 25 Jul 10:02:35 10:04:59 15° 296° (WNW) 10:07:20 437.445
HO-68 25 Jul 10:16:31 10:21:28 21° 304° (WNW) 10:26:26 435.675
AO-73 25 Jul 10:16:34 10:20:15 32° 290° (WNW) 10:23:55 145.935
TIGRISAT 25 Jul 10:27:59 10:32:34 60° 259° (W) 10:37:07 435.000
M-CUBED/EXP-1 PRIME 25 Jul 10:35:34 10:39:10 73° 253° (WSW) 10:43:06 437.505
DELFI C3 25 Jul 10:41:13 10:45:14 89° 286° (WNW) 10:49:15 145.870
FO-29 25 Jul 10:50:45 10:57:30 35° 267° (W) 11:04:33 435.910
AIST 2D 25 Jul 10:54:22 10:57:25 29° 72° (ENE) 11:00:28 435.315
EO-88 25 Jul 11:06:07 11:09:44 67° 285° (WNW) 11:13:21 145.990 - 145.960
LO-87 25 Jul 11:10:58 11:13:05 15° 93° (E) 11:15:11 145.935 - 145.965
ESTCUBE 1 25 Jul 11:11:48 11:13:05 11° 90° (E) 11:14:21 437.505/2401.250
PRISM 25 Jul 11:16:05 11:18:51 17° 267° (W) 11:21:38 437.425
NO-84 25 Jul 11:17:51 11:20:50 73° 137° (SE) 11:24:04 435.350 FM
UNISAT 6 25 Jul 11:22:29 11:25:17 16° 268° (W) 11:28:04 437.425
DUCHIFAT 1 25 Jul 11:38:47 11:42:43 39° 71° (ENE) 11:46:40 145.980
POLYITAN 1 25 Jul 11:41:22 11:45:31 52° 73° (ENE) 11:49:41 437.675
QB50P2 25 Jul 11:54:18 11:58:34 82° 75° (ENE) 12:02:51 145.880/145.840
NANOSAT C BR1 25 Jul 12:06:08 12:10:24 89° 266° (W) 12:14:40 145.865
EO-79 25 Jul 12:06:16 12:10:32 80° 258° (WSW) 12:14:49 145.935-145.965
BUGSAT 1 25 Jul 12:07:15 12:10:38 24° 68° (ENE) 12:14:02 437.445
AO-85 25 Jul 12:10:37 12:13:53 24° 114° (ESE) 12:17:04 145.980
AIST 2D 25 Jul 12:28:37 12:30:40 15° 267° (W) 12:32:44 435.315
Oscar 19 25 Jul 12:42:26 12:46:40 27° 66° (ENE) 12:50:55 437.125/150
LO-87 25 Jul 12:43:23 12:46:36 31° 288° (WNW) 12:49:48 145.935 - 145.965
SPROUT 25 Jul 12:43:33 12:47:13 27° 96° (E) 12:50:51 437.525
ESTCUBE 1 25 Jul 12:45:49 12:50:19 68° 285° (WNW) 12:54:49 437.505/2401.250
BEESAT 3 25 Jul 12:49:07 12:53:03 66° 120° (ESE) 12:57:03 437.485
NO-84 25 Jul 12:56:35 12:58:41 16° 336° (NNW) 13:00:54 435.350 FM
Gurwin Techsat 1B 25 Jul 13:10:10 13:14:50 32° 67° (ENE) 13:19:31 435.225
DUCHIFAT 1 25 Jul 13:15:41 13:18:31 17° 267° (W) 13:21:22 145.980
POLYITAN 1 25 Jul 13:19:36 13:21:36 13° 269° (W) 13:23:35 437.675
PCSat 25 Jul 13:22:36 13:27:00 24° 48° (NE) 13:31:23 145.827
BEESAT 2 25 Jul 13:29:36 13:33:30 59° 118° (ESE) 13:37:29 435.950
VELOX 1 25 Jul 13:30:13 13:34:42 78° 102° (ESE) 13:39:09 145.980
DX 1 25 Jul 13:35:15 13:38:56 26° 96° (E) 13:42:34 434.975-435.025
BUGSAT 1 25 Jul 13:42:09 13:45:51 29° 264° (W) 13:49:33 437.445
50 SAT 25 Jul 13:43:14 13:46:33 44° 100° (E) 13:49:50 437.505
AO-85 25 Jul 13:50:39 13:54:08 28° 310° (NW) 13:57:34 145.980
RS-15 25 Jul 14:11:26 14:19:16 20° 98° (E) 14:27:10 29.354- 29.394
UKube-1 25 Jul 14:16:49 14:21:02 48° 100° (E) 14:25:12 .
SPROUT 25 Jul 14:19:31 14:23:00 25° 292° (WNW) 14:26:28 437.525
Oscar 19 25 Jul 14:21:08 14:25:48 36° 263° (W) 14:30:31 437.125/150
BEESAT 3 25 Jul 14:28:45 14:31:03 15° 318° (NW) 14:33:22 437.485
AO-7 25 Jul 14:33:16 14:40:57 43° 61° (ENE) 14:48:40 .
ITAMSAT 1 25 Jul 14:34:44 14:38:52 24° 65° (ENE) 14:43:01 435.822/435.867
Gurwin Techsat 1B 25 Jul 14:50:00 14:54:43 32° 264° (W) 14:59:27 435.225
PCSat 25 Jul 15:05:25 15:10:42 53° 247° (WSW) 15:15:57 145.827
O/OREOS (USA 219) 25 Jul 15:07:22 15:11:35 42° 106° (ESE) 15:15:49 437.305
SO-50 25 Jul 15:08:21 15:12:50 55° 54° (NE) 15:17:20 436.795
BEESAT 2 25 Jul 15:09:08 15:11:37 16° 317° (NW) 15:14:09 435.950
VELOX 1 25 Jul 15:09:20 15:10:29 11° 299° (WNW) 15:11:38 145.980
DX 1 25 Jul 15:11:18 15:15:03 28° 292° (WNW) 15:18:47 434.975-435.025
50 SAT 25 Jul 15:18:06 15:18:51 11° 295° (WNW) 15:19:36 437.505
MOZHAYETS 4 25 Jul 15:19:39 15:22:42 18° 92° (E) 15:25:44
UKube-1 25 Jul 15:54:02 15:56:39 16° 296° (WNW) 15:59:14 .
BEESAT 25 Jul 15:58:22 16:03:05 60° 101° (E) 16:07:46 436.000
ITUPSAT 1 25 Jul 16:11:51 16:16:38 80° 105° (ESE) 16:21:22 437.325
ITAMSAT 1 25 Jul 16:13:07 16:18:03 43° 261° (W) 16:23:03 435.822/435.867
NO-84 25 Jul 16:14:33 16:16:21 13° 20° (NNE) 16:18:13 435.350 FM
RS-15 25 Jul 16:17:36 16:29:47 82° 118° (ESE) 16:42:10 29.354- 29.394
AO-7 25 Jul 16:25:44 16:33:36 45° 260° (W) 16:41:33 .
DOVE 4 25 Jul 16:39:29 16:43:19 23° 65° (ENE) 16:47:18 437.250
O/OREOS (USA 219) 25 Jul 16:47:54 16:51:10 20° 304° (WNW) 16:54:27 437.305
SO-50 25 Jul 16:50:02 16:52:51 16° 250° (WSW) 16:55:40 436.795
MOZHAYETS 4 25 Jul 16:55:43 17:00:03 44° 288° (WNW) 17:04:22
XW-2D 25 Jul 17:05:25 17:06:40 11° 65° (ENE) 17:07:55 145.860 - 145.880
HO-68 25 Jul 17:14:04 17:15:57 11° 49° (NE) 17:17:52 435.675
XW-2B 25 Jul 17:14:38 17:16:40 14° 66° (ENE) 17:18:42 145.730 - 145.750
XW-2C 25 Jul 17:30:57 17:33:54 22° 69° (ENE) 17:36:52 145.795 - 145.815
CUBESAT XI-V 25 Jul 17:31:10 17:35:51 85° 102° (ESE) 17:40:33 437.345
KKS-1 25 Jul 17:33:17 17:37:36 46° 99° (E) 17:41:53 437.445
NUDT-PHONESAT 25 Jul 17:37:05 17:39:44 19° 69° (ENE) 17:42:24 437.300
BEESAT 25 Jul 17:37:35 17:40:21 16° 298° (WNW) 17:43:05 436.000
NO-84 25 Jul 17:50:50 17:54:33 47° 38° (NE) 17:58:32 435.350 FM
KAITUO 1B 25 Jul 17:51:33 17:54:46 29° 71° (ENE) 17:58:00 145.475/437.950
ITUPSAT 1 25 Jul 17:52:05 17:53:46 12° 300° (WNW) 17:55:27 437.325
LilacSat-2 25 Jul 17:54:09 17:57:45 45° 74° (ENE) 18:01:22 437.200
STARS 25 Jul 18:01:48 18:05:55 38° 98° (E) 18:10:00 437.465
CUTE-I 25 Jul 18:03:32 18:08:45 55° 72° (ENE) 18:14:01 437.470
YUBILEINY 25 Jul 18:04:47 18:12:14 32° 84° (E) 18:19:42 435.215
CUTE 1.7 + AOD 2 25 Jul 18:05:11 18:05:24 10° 62° (ENE) 18:05:36 437.475
XW-2F 25 Jul 18:07:34 18:11:14 60° 76° (ENE) 18:14:55 145.980 - 146.000
DOVE 4 25 Jul 18:16:03 18:20:39 42° 263° (W) 18:25:32 437.250
RS-15 25 Jul 18:32:35 18:43:43 37° 324° (NW) 18:54:54 29.354- 29.394
XW-2D 25 Jul 18:36:45 18:40:24 50° 261° (W) 18:44:04 145.860 - 145.880
XW-2B 25 Jul 18:46:59 18:50:31 38° 262° (W) 18:54:03 145.730 - 145.750
XW-2A 25 Jul 18:47:21 18:49:17 15° 68° (ENE) 18:51:13 145.665 - 145.685
HO-68 25 Jul 18:55:12 19:02:11 58° 68° (ENE) 19:09:12 435.675
AAUSAT CUBESAT 2 25 Jul 18:57:22 18:58:31 11° 63° (ENE) 18:59:39 437.432
XW-2C 25 Jul 19:04:57 19:07:59 23° 265° (W) 19:11:02 145.795 - 145.815
NUDT-PHONESAT 25 Jul 19:10:20 19:13:28 26° 264° (W) 19:16:36 437.300
KKS-1 25 Jul 19:10:51 19:13:47 17° 296° (WNW) 19:16:43 437.445
CUBESAT XI-V 25 Jul 19:11:28 19:12:31 11° 299° (WNW) 19:13:34 437.345
CUBEBUG 2 25 Jul 19:21:44 19:26:07 40° 72° (ENE) 19:30:25 437.445
KAITUO 1B 25 Jul 19:26:21 19:28:49 17° 267° (W) 19:31:17 145.475/437.950
NO-84 25 Jul 19:28:42 19:31:54 23° 232° (SW) 19:35:16 435.350 FM
LilacSat-2 25 Jul 19:30:58 19:32:16 11° 269° (W) 19:33:34 437.200
CUTE 1.7 + AOD 2 25 Jul 19:36:25 19:40:36 74° 259° (W) 19:44:49 437.475
AO-73 25 Jul 19:36:26 19:39:14 17° 66° (ENE) 19:41:59 145.935
STARS 25 Jul 19:38:48 19:41:58 20° 295° (WNW) 19:45:08 437.465
CUTE-I 25 Jul 19:45:27 19:49:08 19° 268° (W) 19:52:49 437.470
SEEDS 25 Jul 19:47:30 19:51:39 88° 256° (WSW) 19:55:51 437.485
YUBILEINY 25 Jul 19:59:56 20:08:33 55° 283° (WNW) 20:17:12 435.215
ISS 25 Jul 20:13:46 20:16:30 25° 134° (SE) 20:19:14 437.550
UWE-3 25 Jul 20:18:18 20:22:54 86° 257° (WSW) 20:27:24 435.000/436.395/437.385
XW-2A 25 Jul 20:18:47 20:21:45 29° 263° (W) 20:24:45 145.665 - 145.685
Tancredo 1 25 Jul 20:27:22 20:30:17 75° 323° (NW) 20:33:13 437.200
AAUSAT CUBESAT 2 25 Jul 20:29:20 20:33:23 64° 259° (WSW) 20:37:30 437.432
ZACube-1 25 Jul 20:30:48 20:35:14 72° 76° (ENE) 20:39:35 437.345
STRAND 1 25 Jul 20:33:28 20:38:37 89° 120° (ESE) 20:43:43 437.568
AO-85 25 Jul 20:40:54 20:44:18 23° 48° (NE) 20:47:50 145.980
HO-68 25 Jul 20:44:25 20:50:15 27° 266° (W) 20:56:08 435.675
RS-15 25 Jul 20:52:21 21:01:18 22° 358° (N) 21:10:06 29.354- 29.394
nSIGHT-1 25 Jul 20:54:47 20:58:00 71° 141° (SE) 21:01:13 .
Oscar 11 25 Jul 20:55:54 21:00:13 89° 269° (W) 21:04:32 .
CUBEBUG 2 25 Jul 20:59:23 21:02:50 20° 267° (W) 21:06:15 437.445
BEESAT 3 25 Jul 21:06:14 21:09:55 34° 51° (NE) 21:13:33 437.485
AO-73 25 Jul 21:10:52 21:15:07 45° 261° (W) 21:19:18 145.935
DELFI C3 25 Jul 21:25:56 21:29:42 46° 73° (ENE) 21:33:30 145.870
EO-88 25 Jul 21:43:13 21:46:41 44° 74° (ENE) 21:50:10 145.990 - 145.960
BEESAT 2 25 Jul 21:47:32 21:51:15 32° 51° (NE) 21:54:54 435.950
ISS 25 Jul 21:49:48 21:52:51 37° 331° (NNW) 21:55:55 437.550
FO-29 25 Jul 22:01:05 22:07:46 44° 96° (E) 22:13:41 435.910
Tancredo 1 25 Jul 22:04:14 22:06:06 15° 343° (NNW) 22:07:57 437.200
ESTCUBE 1 25 Jul 22:11:53 22:12:58 11° 61° (ENE) 22:14:02 437.505/2401.250
STRAND 1 25 Jul 22:15:13 22:17:01 12° 301° (WNW) 22:18:48 437.568
TIGRISAT 25 Jul 22:20:12 22:23:54 27° 96° (E) 22:27:31 435.000
AO-85 25 Jul 22:20:47 22:24:46 39° 244° (WSW) 22:29:02 145.980
nSIGHT-1 25 Jul 22:32:09 22:34:40 21° 339° (NNW) 22:37:12 .
BEESAT 3 25 Jul 22:44:16 22:47:16 21° 248° (WSW) 22:50:13 437.485
PRISM 25 Jul 22:55:49 22:59:59 62° 102° (ESE) 23:04:05 437.425
DELFI C3 25 Jul 23:03:01 23:04:43 12° 269° (W) 23:06:25 145.870
RS-15 25 Jul 23:08:14 23:19:05 34° 33° (NNE) 23:29:27 29.354- 29.394
UNISAT 6 25 Jul 23:12:18 23:16:36 69° 285° (WNW) 23:20:50 437.425
LO-87 25 Jul 23:18:12 23:21:50 89° 249° (WSW) 23:25:30 145.935 - 145.965
EO-88 25 Jul 23:19:40 23:20:35 11° 269° (W) 23:21:31 145.990 - 145.960
BEESAT 2 25 Jul 23:25:37 23:28:49 23° 248° (WSW) 23:31:59 435.950
ISS 25 Jul 23:28:15 23:30:02 14° 350° (N) 23:31:48 437.550
SPROUT 25 Jul 23:36:47 23:40:02 21° 67° (ENE) 23:43:18 437.525
QB50P2 25 Jul 23:41:04 23:43:07 13° 91° (E) 23:45:10 145.880/145.840
Tancredo 1 25 Jul 23:41:55 23:42:28 10° 3° (N) 23:43:00 437.200
ESTCUBE 1 25 Jul 23:44:38 23:49:05 79° 258° (WSW) 23:53:35 437.505/2401.250
FO-29 25 Jul 23:46:20 23:52:34 34° 297° (WNW) 23:58:11 435.910
M-CUBED/EXP-1 PRIME 25 Jul 23:47:38 23:52:17 85° 108° (ESE) 23:56:57 437.505
NANOSAT C BR1 25 Jul 23:52:05 23:54:24 14° 92° (E) 23:56:42 145.865
AIST 2D 25 Jul 23:52:13 23:55:29 36° 98° (E) 23:58:44 435.315
EO-79 25 Jul 23:52:17 23:54:57 16° 92° (E) 23:57:36 145.935-145.965
TIGRISAT 25 Jul 23:56:57 00:00:29 25° 292° (WNW) 00:03:57 435.000
nSIGHT-1 26 Jul 00:10:40 00:12:01 12° 359° (N) 00:13:22 .
50 SAT 26 Jul 00:15:14 00:17:20 16° 67° (ENE) 00:19:27 437.505
VELOX 1 26 Jul 00:26:44 00:31:06 65° 74° (ENE) 00:35:31 145.980
DX 1 26 Jul 00:30:39 00:34:02 22° 66° (ENE) 00:37:26 434.975-435.025
PRISM 26 Jul 00:33:08 00:34:42 12° 297° (WNW) 00:36:17 437.425
DUCHIFAT 1 26 Jul 00:58:05 01:02:16 75° 102° (ESE) 01:06:25 145.980
POLYITAN 1 26 Jul 01:01:52 01:06:05 78° 284° (WNW) 01:10:15 437.675
ISS 26 Jul 01:05:42 01:07:33 14° 11° (N) 01:09:24 437.550
UKube-1 26 Jul 01:10:45 01:14:46 39° 71° (ENE) 01:18:48 .
SPROUT 26 Jul 01:11:50 01:15:44 33° 263° (W) 01:19:38 437.525
QB50P2 26 Jul 01:15:06 01:19:11 49° 287° (WNW) 01:23:14 145.880/145.840
Tancredo 1 26 Jul 01:16:25 01:18:44 20° 23° (NNE) 01:21:03 437.200
O/OREOS (USA 219) 26 Jul 01:17:16 01:21:46 79° 68° (ENE) 01:26:16 437.305
RS-15 26 Jul 01:21:04 01:33:14 87° 240° (WSW) 01:44:43 29.354- 29.394
BUGSAT 1 26 Jul 01:23:39 01:27:29 38° 98° (E) 01:31:15 437.445
M-CUBED/EXP-1 PRIME 26 Jul 01:24:11 01:26:01 12° 304° (WNW) 01:27:52 437.505
NANOSAT C BR1 26 Jul 01:26:20 01:30:20 45° 288° (WNW) 01:34:19 145.865
AIST 2D 26 Jul 01:26:45 01:28:20 13° 293° (WNW) 01:29:56 435.315
EO-79 26 Jul 01:26:56 01:30:53 40° 288° (WNW) 01:34:47 145.935-145.965
Gurwin Techsat 1B 26 Jul 01:28:25 01:30:27 12° 89° (E) 01:32:28 435.225
ITUPSAT 1 26 Jul 01:44:46 01:45:43 11° 59° (ENE) 01:46:41 437.325
50 SAT 26 Jul 01:46:54 01:49:50 27° 263° (W) 01:52:48 437.505
nSIGHT-1 26 Jul 01:46:56 01:49:23 19° 20° (NNE) 01:51:50 .
DX 1 26 Jul 02:06:05 02:10:00 33° 262° (W) 02:13:58 434.975-435.025
VELOX 1 26 Jul 02:06:38 02:07:58 11° 270° (W) 02:09:19 145.980
MOZHAYETS 4 26 Jul 02:21:34 02:24:33 17° 65° (ENE) 02:27:32
Oscar 19 26 Jul 02:32:13 02:37:24 80° 102° (ESE) 02:42:35 437.125/150
AO-7 26 Jul 02:39:45 02:41:00 10° 86° (E) 02:42:15 .
ISS 26 Jul 02:41:35 02:44:42 41° 30° (NNE) 02:47:48 437.550
UKube-1 26 Jul 02:47:59 02:50:56 18° 267° (W) 02:53:53 .
Tancredo 1 26 Jul 02:51:25 02:54:18 54° 220° (SW) 02:57:11 437.200
BUGSAT 1 26 Jul 02:59:51 03:02:31 17° 295° (WNW) 03:05:10 437.445
BEESAT 26 Jul 03:04:10 03:08:54 67° 73° (ENE) 03:13:39 436.000
Gurwin Techsat 1B 26 Jul 03:05:38 03:10:59 80° 287° (WNW) 03:16:17 435.225
ITUPSAT 1 26 Jul 03:17:59 03:22:47 90° 35° (NE) 03:27:36 437.325
nSIGHT-1 26 Jul 03:22:52 03:26:06 80° 219° (SW) 03:29:20 .
RS-15 26 Jul 03:35:46 03:43:49 22° 262° (W) 03:51:39 29.354- 29.394
MOZHAYETS 4 26 Jul 03:56:55 04:01:19 48° 261° (W) 04:05:45
PCSat 26 Jul 04:04:55 04:08:48 20° 106° (ESE) 04:12:42 145.827
Oscar 19 26 Jul 04:13:34 04:16:02 14° 300° (WNW) 04:18:29 437.125/150
YUBILEINY 26 Jul 04:15:57 04:20:32 15° 59° (ENE) 04:25:06 435.215
ISS 26 Jul 04:18:23 04:21:01 22° 227° (SW) 04:23:38 437.550
ITAMSAT 1 26 Jul 04:25:51 04:31:02 69° 103° (ESE) 04:36:11 435.822/435.867
AO-7 26 Jul 04:26:56 04:35:16 65° 105° (ESE) 04:43:31 .
KKS-1 26 Jul 04:30:47 04:34:58 41° 71° (ENE) 04:39:12 437.445
CUBESAT XI-V 26 Jul 04:33:50 04:38:24 79° 77° (ENE) 04:43:01 437.345
BEESAT 26 Jul 04:45:05 04:47:06 12° 270° (W) 04:49:07 436.000
Gurwin Techsat 1B 26 Jul 04:48:40 04:50:03 11° 303° (WNW) 04:51:24 435.225
STARS 26 Jul 04:57:54 05:01:52 33° 70° (ENE) 05:05:52 437.465
SO-50 26 Jul 05:23:37 05:26:42 18° 111° (ESE) 05:29:47 436.795
PCSat 26 Jul 05:46:26 05:51:45 55° 303° (WNW) 05:57:06 145.827
ITAMSAT 1 26 Jul 06:06:51 06:09:54 16° 299° (WNW) 06:12:56 435.822/435.867
KKS-1 26 Jul 06:08:36 06:11:41 18° 267° (W) 06:14:48 437.445
XW-2D 26 Jul 06:10:18 06:12:41 16° 93° (E) 06:15:03 145.860 - 145.880
STRAND 1 26 Jul 06:12:26 06:15:29 16° 61° (ENE) 06:18:31 437.568
